SCP
0 0 0 0 0 0 0 0 0 0 0 0 0 0 0 0 0 0 0 0 0 0 0 0 0 0 0 0 0 0 0 0 0 0 0 0 0 0 0 0 0 0 0 0
0 0 0 0 0 0 0 0 0 0 0 0 0 0 0 0 0 0 0 0 0 0 0 0 0 0 0 0 0 0 0 0 0 0 0 0 0 0 0 0 0 0 0 0
0 0 -0 -0 -0 0 0 0 0 0 0 0 0 0 0 0 0 0 0 0 0 0 0 0 0 0 0 0 0 0 0 0 0 0 0 0 0 0 0 0 0 0 0 0
0 0 0 0 0 -0 0 0 0 0 0 0 0 0 0 0 0 0 0 0 0 0 0 0 0 0 0 0 0 0 0 0 0 0 0 0 0 0 0 0 0 0 0 0
0 0 0 0 0 0 0 0 0 0 0 0 0 0 0 0 0 0 0 0 0 0 0 0 0 0 0 0 0 0 0 0 0 0 0 0 0 0 0 0 0 0 0 0
0 0 0 0 0 0 0 0 0 0 0 0 0 0 0 0 0 0 0 0 0 0 0 0 0 0 0 0 0 0 0 0 0 0 0 0 0 0 0 0 0 0 0 0
0 0 0 0 0 0 0 0 0 0 0 0 0 0 0 0 0 0 0 0 0 0 0 0 0 0 0 0 0 0 0 0 0 0 0 0 0 0 0 0 0 0 0 0
0 0 0 0 0 0 0 0 0 0 0 0 0 0 0 0 0 0 0 0 0 0 0 0 0 0 0 0 0 0 0 0 0 0 0 0 0 0 0 0 0 0 0 0
0 0 0 0 0 0 0 0 0 0 0 0 0 0 0 0 0 0 0 0 0 0 0 0 0 0 0 0 0 0 0 0 0 0 0 0 0 0 0 0 0 0 0 0
0 0 0 0 0 0 0 0 0 0 0 0 0 0 0 0 0 0 0 0 0 0 0 0 0 0 0 0 0 0 0 0 0 0 0 0 0 0 0 0 0 0 0 0
0 0 0 0 0 0 0 0 0 0 0 0 0 0 0 0 0 0 0 0 0 0 0 0 0 0 0 0 0 0 0 0 0 0 0 0 0 0 0 0 0 0 0 0
0 0 0 0 0 0 0 0 0 0 0 0 0 0 0 0 0 0 0 0 0 0 0 0 0 0 0 0 0 0 0 0 0 0 0 0 0 0 0 0 0 0 0 0
0 0 0 0 0 0 0 0 0 0 0 0 0 0 0 0 0 0 0 0 0 0 0 0 0 0 0 0 0 0 0 0 0 0 0 0 0 0 0 0 0 0 0 0
0 0 0 0 0 0 0 0 0 0 0 0 0 0 0 0 0 0 0 0 0 0 0 0 0 0 0 0 0 0 0 0 0 0 0 0 0 0 0 0 0 0 0 0
0 0 0 0 0 0 0 0 0 0 0 0 0 0 0 0 0 0 0 0 0 0 0 0 0 0 0 0 0 0 0 0 0 0 0 0 0 0 0 0 0 0 0 0
0 0 0 0 0 0 0 0 0 0 0 0 0 0 0 0 0 0 0 0 0 0 0 0 0 0 0 0 0 0 0 0 0 0 0 0 0 0 0 0 0 0 0 0
0 0 0 0 0 0 0 0 0 0 0 0 0 0 0 0 0 0 0 0 0 0 0 0 0 0 0 0 0 0 0 0 0 0 0 0 0 0 0 0 0 0 0 0
0 0 0 0 0 0 0 0 0 0 0 0 0 0 0 0 0 0 0 0 0 0 0 0 0 0 0 0 0 0 0 0 0 0 0 0 0 0 0 0 0 0 0 0
0 0 0 0 0 0 0 0 0 0 0 0 0 0 0 0 0 0 0 0 0 0 0 0 0 0 0 0 0 0 0 0 0 0 0 0 0 0 0 0 0 0 0 0
0 0 0 0 0 0 0 0 0 0 0 0 0 0 0 0 0 0 0 0 0 0 0 0 0 0 0 0 0 0 0 0 0 0 0 0 0 0 0 0 0 0 0 0
0 0 0 0 0 0 0 0 0 0 0 0 0 0 0 0 0 0 0 0 0 0 0 0 0 0 0 0 0 0 0 0 0 0 0 0 0 0 0 0 0 0 0 0
0 0 0 0 0 0 0 0 0 0 0 0 0 0 0 0 0 0 0 0 0 0 0 0 0 0 0 0 0 0 0 0 0 0 0 0 0 0 0 0 0 0 0 0
0 0 0 0 0 0 0 0 0 0 0 0 0 0 0 0 0 0 0 0 0 0 0 0 0 0 0 0 0 0 0 0 0 0 0 0 0 0 0 0 0 0 0 0
0 0 0 0 0 0 0 0 0 0 0 0 0 0 0 0 0 0 0 0 0 0 0 0 0 0 0 0 0 0 0 0 0 0 0 0 0 0 0 0 0 0 0 0
0 0 0 0 0 0 0 0 0 0 0 0 0 0 0 0 0 0 0 0 0 0 0 0 0 0 0 0 0 0 0 0 0 0 0 0 0 0 0 0 0 0 0 0
0 0 0 0 0 0 0 0 0 0 0 0 0 0 0 0 0 0 0 0 0 0 0 0 0 0 0 0 0 0 0 0 0 0 0 0 0 0 0 0 0 0 0 0
0 0 0 0 0 0 0 0 0 0 0 0 0 0 0 0 0 0 0 0 0 0 0 0 0 0 0 0 0 0 0 0 0 0 0 0 0 0 0 0 0 0 0 0
Wind_Speed
6 5 4 6 7 7 9 8 9 8 8 10 7 5 5 4 3 2 3 3 2 2 3 3 3 4 3 4 3 3 3 4 5 4 4 4 4 4 4 4 5 4 4 4
4 3 4 8 11 10 10 9 10 8 12 9 6 4 4 4 4 4 4 4 3 3 3 4 4 4 4 4 3 2 3 5 4 3 3 4 4 4 4 4 4 4 4 4
4 4 5 10 10 11 8 8 9 12 11 4 3 4 6 5 5 5 5 4 4 4 4 4 4 4 4 4 3 3 4 4 4 3 4 4 4 3 4 4 4 4 4 4
3 3 8 8 1 6 7 7 9 8 6 5 5 4 5 5 5 5 4 4 4 4 4 4 3 3 3 3 2 3 3 4 4 3 4 3 3 4 4 3 4 4 5 5
2 4 10 8 3 5 6 7 7 9 8 5 2 2 4 4 4 5 4 5 5 4 4 4 4 4 3 3 2 3 4 4 4 4 4 4 4 5 4 3 4 4 4 5
3 4 8 5 1 2 3 6 4 6 5 3 3 1 5 3 2 3 4 4 4 3 3 4 4 3 2 3 3 4 5 5 4 4 4 5 5 4 3 3 4 4 4 4
6 7 11 6 2 3 3 6 2 4 4 4 6 6 4 2 3 3 4 4 4 3 3 4 4 2 3 4 5 5 4 4 4 4 4 5 4 3 3 3 3 3 4 4
6 7 12 3 5 6 7 2 2 3 3 4 5 5 4 4 4 4 4 4 3 3 4 4 3 3 4 6 6 4 4 4 4 4 3 3 3 3 3 3 3 4 3 4
10 10 4 4 6 5 3 3 3 3 4 4 4 5 5 5 5 5 5 4 3 4 5 5 3 3 5 6 4 3 3 4 4 3 3 3 3 3 2 3 3 3 3 4
6 9 7 6 6 5 5 5 5 4 4 4 5 6 6 6 5 5 5 4 4 4 5 6 4 4 5 5 4 3 4 4 3 3 3 3 3 3 3 3 4 4 4 5
8 8 6 6 7 7 5 5 5 5 4 5 6 6 6 5 6 5 5 4 3 4 5 7 5 5 5 4 3 4 4 4 4 3 3 3 3 4 4 5 6 5 5 4
9 7 6 7 5 5 6 6 6 6 6 5 6 7 6 6 6 5 5 4 4 5 6 6 5 6 5 4 3 3 4 4 3 3 3 3 3 4 7 8 10 11 10 8
8 5 6 7 5 5 6 6 6 6 7 7 6 6 6 5 5 4 5 5 5 6 6 6 5 6 6 4 4 4 5 4 3 3 3 3 3 4 5 5 8 10 11 11
7 5 6 6 6 5 6 6 5 5 5 5 5 5 4 5 5 5 6 6 5 5 6 6 6 7 6 4 4 5 5 5 5 4 4 4 4 4 4 4 5 4 6 10
7 7 8 6 5 5 4 4 4 5 5 5 4 4 5 5 6 6 6 5 4 5 6 6 6 8 5 4 4 5 4 4 4 4 4 4 4 4 4 5 5 5 4 5
5 5 6 6 7 6 5 5 6 6 6 5 5 5 6 6 6 6 6 4 4 6 7 6 8 7 5 5 5 4 4 7 6 4 4 4 4 4 4 5 5 5 5 4
4 6 5 6 7 7 6 6 7 7 6 6 7 6 5 5 5 6 6 5 6 7 7 8 8 7 5 5 5 4 4 5 7 4 4 4 4 5 5 5 5 6 6 6
8 8 7 7 6 7 6 6 6 6 7 7 5 4 5 5 7 7 7 5 5 7 8 8 7 7 6 5 5 4 4 4 4 4 4 4 5 5 5 5 6 7 5 6
5 6 5 5 5 5 5 6 6 6 6 5 5 6 6 6 7 6 5 5 6 9 8 6 8 6 6 6 6 4 4 4 4 4 4 7 6 5 5 5 6 6 6 5
3 3 3 3 3 3 4 4 4 4 4 4 4 5 6 6 6 6 5 7 7 7 6 7 6 6 6 6 7 4 4 5 5 5 5 5 5 5 5 6 6 6 6 6
3 3 3 4 4 4 4 4 4 5 5 4 5 6 7 7 5 5 5 7 8 6 7 9 6 5 5 6 7 4 5 5 5 5 5 5 5 6 6 6 6 6 6 6
3 4 4 4 4 5 4 4 4 5 5 5 6 6 6 7 7 6 7 8 8 9 6 5 5 7 8 8 4 5 5 6 5 5 5 5 6 6 6 6 6 6 5 5
4 4 5 5 5 5 5 4 4 5 6 6 7 7 7 7 5 5 8 5 5 9 6 5 8 12 13 7 4 5 6 6 6 6 6 6 6 6 6 6 6 5 5 5
4 4 5 4 3 4 6 7 5 5 6 7 7 7 7 6 6 6 7 10 11 11 7 8 13 14 12 5 4 5 5 6 6 6 6 5 5 5 5 6 5 5 5 5
5 5 5 4 5 5 7 6 6 6 6 6 8 8 6 6 7 7 5 7 11 11 7 9 13 13 8 4 5 5 5 6 6 5 5 6 5 5 5 5 5 5 5 5
5 5 5 6 6 6 5 4 5 5 5 6 7 6 5 5 6 7 6 7 9 10 8 6 6 7 5 5 5 6 6 6 6 6 6 6 6 6 5 5 6 5 5 4
5 5 5 5 6 6 5 5 6 7 6 6 7 6 5 5 5 6 6 6 6 6 6 5 5 5 5 5 5 5 5 5 5 5 5 5 5 5 5 6 5 4 4 4
Wind_Direction
258 267 257 247 239 212 208 209 215 236 237 255 254 249 255 258 265 283 297 304 294 288 288 293 294 288 277 272 267 251 244 246 250 253 248 246 243 240 236 231 231 227 227 234
286 270 259 261 246 229 228 226 234 252 265 254 251 239 252 252 244 251 264 272 279 283 286 287 288 288 287 281 276 254 248 254 260 259 255 248 245 241 239 238 235 227 227 231
281 310 322 268 233 205 207 208 197 224 241 243 236 236 239 241 236 239 248 258 265 270 267 268 272 272 272 273 276 259 256 263 261 255 255 252 246 239 240 239 231 233 234 231
283 346 251 249 207 187 205 232 214 229 244 237 236 246 249 233 222 236 244 254 263 265 268 270 269 274 272 273 271 262 263 267 263 255 254 255 246 243 243 236 233 238 240 236
207 263 277 288 240 176 191 261 218 220 242 251 260 330 294 244 213 226 239 247 252 254 259 270 278 279 280 284 282 274 269 267 262 252 252 251 248 249 243 236 240 238 241 237
193 237 254 257 218 174 129 278 234 198 219 215 137 237 268 260 244 257 263 261 260 266 270 273 277 277 271 277 276 268 265 264 260 249 244 245 247 249 243 235 241 242 245 240
214 240 264 257 213 128 186 253 214 190 200 183 197 219 248 280 273 264 270 272 267 263 264 265 271 264 265 271 267 266 270 268 263 253 248 248 250 246 245 241 243 244 251 252
187 217 253 210 145 189 226 262 200 200 205 208 232 259 273 276 274 275 278 276 267 261 268 271 261 245 261 266 267 275 273 270 267 263 258 253 246 252 244 235 241 248 254 266
199 219 247 193 208 235 226 226 226 218 228 224 242 260 268 270 269 271 270 270 265 258 274 280 262 234 253 265 273 277 277 273 272 272 264 252 240 247 251 234 236 246 243 256
248 261 257 251 249 251 230 228 237 231 230 223 237 255 265 268 270 268 267 267 266 269 274 280 275 254 249 266 271 266 269 273 272 269 272 262 245 236 235 234 238 243 244 251
249 267 282 263 236 236 237 239 242 245 238 230 235 253 254 258 261 260 263 265 259 259 265 272 277 271 265 261 256 259 264 266 266 259 259 260 251 239 237 233 228 237 241 239
235 225 216 249 249 227 224 236 238 244 256 247 229 242 249 252 254 256 260 264 268 265 264 271 274 275 272 259 243 245 261 261 255 254 255 255 264 275 254 250 259 255 252 247
238 240 233 256 255 233 231 238 241 237 239 247 246 239 242 252 256 255 261 261 260 263 265 270 274 275 273 260 242 237 246 253 251 247 247 248 251 260 280 280 262 260 257 257
242 247 257 251 249 247 244 248 247 247 244 242 246 247 248 254 261 260 260 261 263 267 269 268 269 272 270 257 246 247 248 250 247 243 240 241 242 245 252 267 282 277 263 260
240 228 241 259 262 258 251 245 244 252 256 257 246 244 247 252 259 263 266 267 270 271 270 267 267 271 268 252 245 248 248 246 243 243 242 243 245 246 249 254 262 271 279 272
250 247 246 250 253 254 249 240 243 253 254 254 254 252 248 249 258 268 270 259 257 268 270 268 266 267 263 252 250 251 248 252 253 249 249 248 245 244 247 251 257 261 261 262
229 250 248 256 257 256 246 239 239 246 248 248 249 252 253 258 267 270 269 257 248 258 263 262 265 267 257 246 242 245 247 254 256 255 247 245 244 244 246 250 255 259 258 255
223 235 238 240 248 256 259 254 247 246 245 247 249 246 244 246 255 265 271 274 275 275 268 257 256 259 253 245 239 238 238 243 244 246 248 245 246 242 244 249 252 257 261 258
235 239 244 245 243 240 247 254 254 252 252 246 241 246 251 251 255 264 270 270 272 277 276 261 260 256 254 250 247 235 234 241 247 248 247 256 259 247 244 248 252 253 254 252
250 248 249 257 255 242 250 256 256 261 259 245 244 254 262 262 258 261 263 262 256 253 265 273 273 264 258 254 250 234 231 236 242 249 249 249 252 253 250 250 251 253 251 249
260 259 256 255 260 260 253 249 249 258 263 249 243 252 261 269 266 258 260 274 272 255 257 268 266 260 256 256 255 238 232 236 241 247 251 252 254 254 254 253 254 253 251 250
257 257 261 262 261 269 268 254 245 252 260 260 257 256 262 269 269 263 250 251 266 272 271 262 259 262 264 264 245 240 240 240 243 245 247 250 252 254 255 253 253 253 251 247
259 258 261 261 259 265 276 270 255 251 254 256 256 255 255 257 256 260 274 263 254 269 269 258 264 271 274 266 244 244 246 245 246 246 246 247 248 251 254 253 252 250 248 246
260 260 261 264 266 270 275 275 269 260 257 260 258 253 252 262 266 248 249 271 278 279 270 269 275 278 278 262 247 245 247 248 249 249 248 247 246 246 248 250 251 247 243 241
261 262 262 261 261 260 262 268 275 272 267 266 265 258 247 237 248 263 261 261 269 276 273 273 278 279 273 256 250 249 249 246 247 246 244 245 244 243 245 245 245 244 242 239
259 259 259 253 251 256 259 260 264 268 269 273 274 267 256 248 248 256 262 261 261 269 268 265 267 270 261 255 253 252 251 257 260 254 245 245 244 243 243 243 243 242 241 237
261 260 262 266 261 249 246 246 252 259 256 256 267 269 262 258 256 256 259 261 263 262 260 260 258 256 255 254 255 254 251 249 247 247 245 244 243 242 241 240 240 239 235 231